Theta_e
321 321 321 321 321 321 321 322 322 323 323 324 324 324 324 324 324 324 325 325 325 326 326 326 326 326 326 326 327 327 323 305 306 307 302 304 312 328 332 338 334 336 328 309 307 306 304 302 302 302 303 302 301 301 301 306 299 302 294 286 285 285 285 287 289 290 292 293 294 294 293 294 292 292 297 296 295 294 292 294 294 295 295 295 294 296 300 301
321 321 321 321 321 321 321 321 322 322 322 323 323 323 324 324 324 324 325 325 325 325 325 326 326 326 326 326 326 326 315 308 305 303 306 318 330 336 337 337 336 333 320 310 309 303 301 301 300 301 301 299 303 301 303 301 304 297 288 286 288 285 290 292 291 291 292 293 291 293 291 292 295 294 295 295 291 291 293 293 292 295 297 295 296 298 299 300
320 321 321 321 321 321 321 321 322 322 322 322 323 323 323 323 323 324 324 324 324 324 325 325 326 326 326 326 325 324 314 308 304 304 311 330 338 338 338 337 335 330 311 308 308 304 303 302 299 300 299 298 299 298 301 299 303 296 292 289 288 289 290 291 293 295 293 294 295 294 292 291 292 294 295 294 294 291 292 293 293 293 297 298 295 296 298 299
320 320 320 320 321 320 321 321 321 322 322 322 322 323 323 322 323 324 324 324 324 324 324 325 325 326 325 325 326 316 310 298 294 298 302 328 336 338 339 338 335 326 310 308 306 303 300 300 299 300 298 298 293 301 299 299 299 295 294 290 291 291 292 297 295 296 297 295 294 292 292 290 290 291 294 291 293 296 297 296 297 296 297 298 295 296 296 298
319 320 320 320 320 320 320 321 321 321 321 322 322 322 322 323 322 323 323 323 323 324 324 325 325 326 325 325 322 311 303 292 297 299 304 331 336 336 338 337 333 317 307 305 303 300 299 298 298 298 298 292 294 298 297 297 297 295 297 298 295 291 292 297 295 294 293 291 291 291 292 296 293 292 292 293 293 296 299 293 297 299 299 297 295 296 296 297
319 319 320 320 320 320 320 320 321 321 321 321 322 321 322 322 322 322 322 323 323 323 324 325 325 325 325 324 308 306 297 289 299 308 326 334 336 337 337 335 331 313 305 305 303 299 301 300 298 296 295 293 293 295 292 298 298 294 294 295 296 296 296 297 297 292 291 294 293 292 294 292 293 293 290 292 295 300 303 294 294 297 298 299 296 295 295 296
318 319 319 320 319 319 320 320 320 321 321 321 321 321 321 322 321 322 322 322 323 323 324 324 324 325 323 321 305 300 298 295 298 308 328 334 335 336 336 333 324 311 304 303 300 300 298 297 297 293 292 293 291 293 294 295 298 296 295 291 296 296 297 299 299 296 294 293 295 293 290 292 292 293 291 292 297 300 302 298 294 295 295 295 294 296 297 297
319 319 320 320 320 319 320 320 320 320 320 321 321 321 321 321 321 321 322 322 322 323 324 323 324 324 322 305 305 296 297 298 301 306 327 331 326 326 320 312 311 307 305 303 300 298 297 296 296 294 294 294 291 294 293 294 296 295 295 294 296 295 296 297 295 293 292 292 293 291 291 295 293 293 290 294 298 300 301 298 297 294 292 292 294 295 296 297
320 320 320 320 320 320 320 320 320 320 320 321 321 321 322 322 321 321 322 322 322 322 323 323 323 324 321 302 297 296 294 301 304 306 316 316 311 309 305 306 308 307 304 302 299 299 299 296 296 296 294 292 293 294 292 294 292 294 297 294 292 293 293 294 292 291 290 292 291 292 294 295 294 293 292 297 300 301 300 296 296 293 293 292 294 295 296 296
320 321 321 321 321 320 320 320 320 320 320 321 321 322 322 322 322 322 322 322 322 322 322 323 323 322 308 300 296 293 299 302 308 311 312 310 308 308 307 304 308 305 301 299 298 298 299 296 300 297 298 295 294 294 291 293 291 292 292 292 293 293 292 293 292 293 290 290 289 293 294 296 292 293 294 299 298 298 295 295 293 292 294 295 294 294 295 296
320 320 320 320 321 320 320 319 320 320 320 321 321 321 322 321 322 322 322 322 321 321 322 322 324 314 304 300 295 293 302 307 306 308 310 306 306 306 306 302 305 304 300 298 298 298 298 296 299 298 301 295 294 292 293 293 292 292 292 291 292 291 291 293 291 292 292 294 291 294 294 294 289 290 294 299 300 295 294 295 292 290 293 294 294 294 294 295
321 321 321 320 320 320 319 319 320 320 320 321 321 321 321 322 322 322 321 321 321 322 322 322 322 312 304 298 294 297 305 308 304 306 307 305 304 303 303 300 303 304 300 297 297 298 300 299 300 299 294 297 292 293 291 291 294 293 291 292 292 290 292 296 293 292 290 293 290 291 291 290 290 289 296 298 299 295 294 295 296 294 293 293 293 293 293 295
321 321 322 320 320 319 319 320 320 320 320 320 320 320 321 322 321 321 321 321 321 321 322 322 315 310 303 293 298 303 305 304 302 303 305 304 303 304 301 300 301 301 300 298 299 301 300 299 301 298 296 297 290 293 293 293 293 292 291 289 292 291 290 296 290 288 290 291 289 291 285 285 292 294 296 298 296 293 292 294 296 297 295 293 293 293 294 295
320 320 320 320 319 318 319 320 320 320 320 320 320 320 321 321 321 321 321 320 322 321 322 323 311 306 298 293 297 306 306 303 303 304 303 306 305 304 305 305 302 302 303 302 300 301 300 298 299 298 296 296 294 295 296 289 288 291 287 289 286 285 287 293 289 288 290 289 290 292 287 289 293 296 297 295 293 292 294 295 295 296 296 296 294 293 294 295
320 319 319 319 318 318 319 319 319 319 319 319 319 320 320 320 321 321 321 321 321 323 321 318 309 299 293 296 302 306 320 304 306 303 304 304 302 303 303 306 303 300 301 301 302 301 299 297 298 298 294 295 295 294 289 284 283 285 286 285 281 285 288 293 293 291 290 289 289 291 285 289 293 296 297 293 292 291 292 294 295 295 295 295 295 293 294 295
319 319 318 318 319 318 318 318 317 318 318 319 320 320 320 320 320 321 321 321 321 321 316 304 306 296 291 291 301 313 305 303 302 303 303 305 303 302 301 302 301 300 300 299 301 299 297 297 296 291 293 293 293 286 282 285 285 281 287 284 285 282 283 286 293 288 290 290 289 292 288 286 289 293 295 292 292 290 292 293 294 294 294 294 294 295 295 295
319 319 319 319 318 318 318 317 317 317 318 319 320 320 320 320 321 321 320 319 319 317 308 300 304 304 292 296 305 299 298 301 303 304 304 304 303 302 302 300 299 298 297 298 298 299 296 297 294 293 288 292 285 285 285 280 283 284 283 283 282 285 285 284 286 294 287 290 287 289 287 289 293 294 294 293 290 289 289 292 293 294 294 294 293 293 294 295
320 319 318 319 319 318 317 317 317 318 318 319 319 319 316 320 323 319 316 314 314 312 309 310 301 297 296 299 296 297 302 301 304 303 301 300 302 300 298 297 295 295 296 294 297 294 295 293 290 290 287 290 288 286 283 281 284 284 282 281 282 281 284 286 284 285 288 288 287 287 287 288 291 293 293 295 295 289 290 292 293 293 292 293 293 294 295 296
320 319 319 319 319 318 318 317 318 318 318 319 320 317 318 318 305 306 309 310 297 295 294 296 293 290 288 297 298 298 303 305 302 304 302 304 303 298 298 296 296 297 293 291 291 294 290 290 290 288 286 287 288 288 287 289 288 287 285 284 281 282 283 284 288 290 289 290 289 286 288 290 291 291 293 295 296 295 294 293 293 293 294 294 295 296 297 297
320 320 320 320 319 318 318 318 318 318 319 317 309 303 299 295 291 298 296 301 299 294 296 294 300 293 296 295 297 301 306 303 302 301 301 303 304 300 298 296 294 292 290 289 291 291 292 288 285 285 288 290 290 289 291 291 290 286 284 282 284 283 285 287 288 290 287 286 287 289 290 289 290 291 293 294 294 294 295 295 295 295 295 296 296 296 297 297
321 321 320 319 319 318 318 318 318 318 319 310 301 294 291 292 290 288 291 294 300 299 297 297 300 300 300 298 300 302 301 299 299 300 303 304 300 301 297 295 293 290 289 289 291 292 291 286 285 290 291 291 291 290 289 288 286 286 286 283 285 284 285 289 290 291 288 286 287 288 289 289 290 292 292 293 292 292 295 295 296 296 296 296 296 297 297 298
321 321 321 320 320 318 318 318 318 318 317 299 300 296 294 295 296 295 291 290 294 295 294 297 296 297 300 300 299 301 300 296 297 299 302 304 300 298 293 293 288 291 288 289 288 287 286 285 288 291 292 289 287 288 286 287 287 285 285 285 284 285 287 289 289 291 291 286 287 287 287 289 291 292 292 292 293 295 296 296 297 297 297 297 297 297 297 297
320 321 321 321 319 318 318 318 318 317 301 299 296 295 296 299 296 294 297 291 290 295 295 294 293 294 296 298 297 300 297 295 294 297 300 301 295 296 291 291 290 287 288 289 289 286 285 285 289 291 290 288 288 287 286 286 285 283 283 281 283 286 284 285 284 286 286 288 282 282 286 288 290 292 292 293 294 295 296 296 296 297 297 297 297 298 298 297
320 320 320 319 318 318 318 318 318 307 301 297 297 298 298 296 297 299 297 290 290 293 295 296 295 293 293 295 298 299 295 293 294 294 299 299 295 292 292 290 288 286 288 289 290 289 288 287 289 291 289 288 288 288 285 284 287 286 286 286 285 285 287 286 285 284 285 285 284 286 286 288 289 289 289 291 292 292 294 295 295 296 297 298 298 297 297 297
320 320 320 319 317 317 317 318 306 303 300 300 298 298 296 295 297 298 293 289 287 290 297 295 295 294 294 300 299 296 294 294 292 295 299 298 292 291 290 290 289 288 288 288 288 287 288 288 287 288 287 286 287 285 285 286 285 287 287 287 288 289 287 287 286 284 280 280 282 284 281 285 284 287 288 290 288 288 291 291 292 294 296 296 295 295 296 296
320 320 320 319 318 318 319 308 302 302 302 300 302 300 295 295 295 296 290 284 285 288 293 292 298 295 301 295 295 294 294 292 293 293 298 297 299 294 290 289 289 286 286 287 288 287 287 287 289 289 288 286 285 285 284 287 286 285 283 288 289 288 286 285 284 283 278 277 284 283 280 282 282 283 285 285 286 288 289 289 292 293 294 294 295 296 296 296
321 320 319 319 319 319 309 302 306 303 302 302 302 299 296 297 297 297 290 285 285 291 289 295 296 295 299 296 294 293 287 286 296 294 294 298 297 298 290 285 288 288 287 286 283 283 286 286 286 287 287 285 283 283 287 287 286 284 283 286 285 284 283 284 283 283 282 280 283 283 282 279 282 284 287 289 289 289 289 291 292 293 293 294 295 296 296 297
321 320 319 320 319 318 309 308 306 304 305 305 302 299 298 297 296 296 290 279 279 294 290 291 295 300 299 295 291 290 290 291 289 293 294 295 296 293 291 285 288 286 288 287 282 287 287 285 284 285 285 283 284 289 287 289 287 284 285 284 284 284 283 282 283 281 279 279 281 281 283 279 280 285 287 287 284 287 288 290 292 293 295 295 296 296 296 296
320 320 319 319 319 319 313 309 307 306 305 302 302 301 300 298 295 288 284 279 291 288 301 293 302 296 292 295 292 287 290 289 288 290 293 295 296 292 289 287 286 285 284 287 287 286 285 288 285 286 284 284 287 286 286 289 286 285 283 283 282 281 281 282 281 282 279 276 280 279 282 278 281 288 282 282 284 285 287 289 291 292 294 294 294 295 296 295
320 319 319 319 318 316 312 310 308 309 306 303 302 300 300 298 292 288 283 279 294 289 293 294 293 289 290 289 289 288 290 288 288 289 291 292 293 294 292 291 288 288 288 287 285 287 287 289 288 286 286 288 286 284 284 288 287 285 286 287 280 281 278 277 278 278 278 278 280 281 282 283 279 283 282 283 285 284 287 287 289 291 292 294 294 294 296 296
320 319 319 318 314 314 312 308 311 307 305 303 303 302 299 294 287 281 280 288 293 292 291 291 289 291 290 288 285 287 288 286 288 289 289 290 290 289 290 290 289 284 281 281 284 288 287 287 287 285 290 287 286 286 283 283 285 287 285 283 282 283 277 276 270 276 275 276 280 282 283 282 277 281 280 282 281 282 287 286 288 289 291 293 294 295 295 293
319 319 319 317 317 317 312 310 310 307 307 306 306 304 302 290 291 285 286 296 289 290 287 286 287 286 287 287 286 285 286 288 286 288 286 284 284 286 286 285 285 282 281 278 282 282 281 284 287 289 290 291 286 286 281 283 286 286 283 282 279 274 274 269 271 271 271 277 278 281 282 278 281 288 284 283 285 285 285 288 289 291 292 293 293 293 293 294
317 318 317 318 316 314 314 311 309 308 309 308 307 305 294 287 282 289 288 290 291 292 289 291 289 289 287 286 285 285 287 286 287 287 285 284 284 285 283 286 284 286 283 280 279 281 284 282 283 285 288 289 288 284 281 283 282 283 282 278 276 272 270 271 265 264 268 277 277 279 281 280 286 285 286 290 294 293 289 288 291 291 292 293 293 292 293 294
315 317 315 316 318 317 313 310 310 310 309 308 304 297 291 284 285 294 289 291 294 291 292 290 289 286 286 288 285 285 287 286 286 286 287 283 283 281 283 284 284 286 285 281 281 278 278 283 283 284 284 286 289 289 288 286 282 285 283 285 282 280 273 271 272 277 278 279 276 276 276 274 275 280 282 289 287 285 285 287 286 287 288 288 289 290 290 291
314 316 317 316 316 317 310 311 310 312 310 306 298 292 285 286 289 286 284 285 287 291 291 292 289 286 287 287 285 287 289 288 287 285 285 283 282 280 281 282 285 286 284 284 284 280 282 283 284 288 287 288 288 291 290 282 282 282 282 282 278 282 282 280 283 282 282 278 273 273 277 277 283 284 286 284 285 288 288 286 285 286 286 286 287 288 290 290
314 315 317 313 313 315 311 311 311 312 309 302 293 287 287 290 285 286 289 292 292 290 290 292 287 287 283 283 283 287 290 288 287 286 284 283 282 282 282 282 284 288 286 284 287 282 285 283 287 288 285 287 286 287 289 288 277 281 284 281 285 286 286 283 283 285 280 276 278 282 278 282 284 289 289 285 285 286 283 283 284 284 285 284 286 287 287 288
312 314 310 312 312 313 311 311 312 311 307 300 291 287 292 289 291 288 296 294 293 294 291 289 289 290 285 284 284 286 289 291 288 285 282 285 285 285 283 284 286 288 291 290 283 289 284 285 291 286 287 287 284 285 287 287 287 283 281 285 286 286 284 282 275 273 276 276 278 284 280 282 281 279 281 286 283 285 285 282 284 284 284 286 286 286 287 288
307 311 312 312 314 313 312 311 311 308 304 297 290 294 292 290 293 296 294 293 294 294 290 289 290 292 287 289 288 288 289 289 289 287 282 287 286 289 284 286 289 289 290 290 286 286 289 282 288 290 287 288 284 288 286 287 287 288 286 288 285 280 279 280 275 274 275 275 276 279 283 283 284 285 287 287 288 289 291 286 283 285 287 288 286 286 286 285
308 309 305 312 315 312 310 312 310 304 298 292 291 291 295 294 294 291 296 295 295 294 291 291 290 291 290 286 286 287 286 287 287 284 286 287 286 291 290 290 289 289 290 290 285 283 289 282 283 290 290 287 283 285 282 283 286 286 287 284 285 283 282 278 280 276 280 277 279 278 282 280 287 287 288 287 285 285 285 282 283 285 287 287 285 285 286 288
305 304 302 309 310 311 311 311 305 301 296 288 292 293 292 289 292 293 294 297 293 293 290 289 291 290 290 290 289 290 285 288 287 287 288 287 289 295 289 293 288 289 289 291 288 289 284 287 279 287 289 287 283 284 284 285 281 283 283 282 283 283 283 283 282 280 280 279 278 278 277 283 288 289 289 290 287 284 284 286 285 285 284 283 284 286 287 287
307 302 302 310 312 312 311 306 299 294 293 291 295 294 293 292 292 292 295 296 295 298 294 291 290 290 290 289 290 290 287 286 286 287 288 287 291 287 292 294 292 290 291 290 291 289 285 284 283 286 286 285 287 286 285 283 283 281 283 281 285 282 281 280 278 285 281 281 278 278 277 284 289 294 295 294 291 284 285 285 286 284 283 285 287 287 285 287
302 293 299 310 311 311 305 295 294 295 291 292 293 296 293 300 291 289 293 294 294 293 296 294 292 292 290 292 292 289 287 285 287 287 287 290 291 293 291 295 293 293 292 286 287 290 289 285 285 281 285 287 290 292 287 286 285 285 286 285 287 285 283 280 276 280 284 283 285 283 280 281 293 293 295 295 295 292 286 286 287 287 285 287 287 284 284 284
299 296 304 308 312 309 301 293 296 293 292 293 296 295 293 292 290 290 291 291 291 293 291 292 292 292 292 293 290 289 291 287 288 287 286 289 292 295 298 296 294 294 295 287 291 290 292 283 280 284 286 288 291 292 292 288 286 285 285 286 285 284 286 284 283 284 282 282 282 281 279 282 293 293 294 295 295 294 291 286 287 288 288 286 284 285 285 286
298 297 300 308 310 307 297 288 289 291 292 295 294 294 295 293 291 290 291 290 292 290 290 289 290 295 291 293 291 290 291 286 290 292 288 288 289 296 297 297 295 291 293 287 290 289 285 284 285 281 281 280 283 286 287 289 286 284 286 288 287 288 287 287 287 285 281 282 283 280 275 282 290 293 294 294 293 292 293 293 287 286 287 286 286 287 287 287
295 298 300 303 307 304 294 296 294 292 292 292 293 292 294 293 292 295 295 291 294 292 290 289 293 290 290 291 290 292 291 291 287 288 290 286 289 285 289 294 295 292 294 292 295 290 287 285 284 278 275 274 274 276 278 281 283 284 283 286 287 286 285 284 280 282 279 282 284 280 280 286 291 292 292 292 293 294 295 295 290 285 287 289 286 286 287 289
291 281 286 296 302 299 298 300 295 290 288 290 290 293 295 292 294 292 293 293 296 291 294 291 288 290 288 289 287 288 289 289 288 285 287 283 283 284 287 289 291 291 292 294 291 291 283 284 286 284 282 280 282 284 287 288 284 283 283 282 284 286 286 285 285 282 280 283 282 284 285 285 287 289 290 292 293 293 293 294 294 293 291 289 286 287 288 289
290 285 284 282 295 296 294 297 295 294 290 294 287 291 291 293 293 293 294 289 291 293 290 292 290 289 286 289 288 289 289 288 288 288 287 288 285 285 286 289 288 290 293 292 292 287 282 284 286 286 285 286 287 287 289 289 285 286 286 286 288 286 284 282 280 280 285 282 278 285 287 285 286 289 291 292 293 293 294 294 293 291 290 289 288 288 289 288
282 282 287 289 288 285 288 289 295 293 293 291 288 291 289 289 289 288 289 291 288 289 287 285 291 291 290 288 287 285 287 287 286 286 289 286 286 285 284 285 285 289 289 287 289 289 284 282 286 287 285 287 287 287 288 287 287 286 286 286 285 287 287 284 284 286 285 281 279 285 286 284 286 288 290 292 291 289 289 287 286 286 286 286 286 286 286 286
286 285 285 289 285 287 288 287 288 291 292 293 289 290 287 287 286 288 286 284 287 285 291 284 287 289 289 288 287 284 287 283 284 286 283 281 282 283 282 283 285 286 286 285 286 286 284 281 285 285 284 285 286 286 287 285 285 286 285 285 286 286 286 286 286 287 287 285 286 286 285 285 287 288 287 284 284 286 287 286 285 284 283 284 284 284 283 284
279 283 281 288 287 285 284 285 287 287 287 292 287 289 290 288 287 289 287 287 284 285 288 287 286 282 284 284 286 285 287 287 284 281 285 282 281 285 282 284 283 283 284 283 285 285 286 281 287 283 281 282 284 285 286 285 285 283 286 287 287 287 287 287 287 287 286 286 287 286 285 284 288 283 284 284 282 283 285 284 282 282 283 282 282 282 282 283
286 289 291 284 282 282 281 280 283 285 284 286 286 288 290 289 289 291 290 293 290 287 286 286 285 284 284 284 285 285 288 285 284 284 284 283 279 284 281 280 285 280 281 281 284 284 285 281 284 282 278 278 283 283 284 284 284 283 283 284 284 284 282 285 284 287 285 284 285 285 284 280 278 283 282 282 281 280 280 283 281 281 282 282 281 281 281 282
282 283 289 287 280 284 279 279 278 281 280 286 288 288 287 286 285 285 285 290 288 289 286 285 285 283 282 284 283 285 286 283 284 285 286 287 287 285 285 284 284 282 281 280 282 280 280 279 278 278 276 276 281 282 281 281 280 277 278 282 283 284 285 286 287 288 286 285 281 279 275 277 279 280 279 280 279 278 279 282 280 281 281 282 282 281 282 282
Wind_Speed
13 14 14 14 14 14 14 15 15 15 15 15 15 15 14 14 14 14 14 14 14 14 13 14 13 13 12 11 10 9 7 1 0 0 2 10 6 4 8 4 10 11 10 5 5 5 1 1 2 2 2 1 1 0 1 0 1 1 1 2 4 5 2 6 5 7 1 0 3 3 1 2 4 3 1 1 2 2 3 3 5 4 5 0 2 2 2 5
13 13 14 14 15 15 14 15 15 15 15 15 15 16 15 14 14 14 14 13 14 14 14 14 14 13 13 12 9 7 4 1 1 1 13 3 2 5 6 6 11 12 10 5 7 5 6 2 2 2 3 1 1 0 1 1 1 3 2 2 8 5 8 7 5 5 0 7 3 3 2 3 8 0 2 1 5 3 6 5 2 5 8 1 3 2 6 8
13 14 14 14 15 15 16 16 15 15 15 15 15 16 15 15 15 15 14 14 14 14 14 14 14 14 13 12 9 6 1 2 1 4 9 6 6 4 7 9 13 14 8 5 5 8 8 9 6 4 1 1 1 2 1 1 3 3 4 6 8 8 6 5 4 5 7 2 6 7 3 4 4 1 0 2 8 6 11 8 1 6 11 11 3 2 5 7
13 13 14 14 15 15 16 16 17 16 16 16 16 15 15 15 16 16 15 15 14 14 14 14 14 13 12 11 8 3 0 1 1 2 2 4 3 4 6 8 12 10 3 3 6 5 3 7 5 5 1 1 2 0 1 4 2 2 2 5 6 4 2 7 8 11 10 1 4 3 1 2 5 5 1 3 6 15 15 8 10 12 13 13 6 6 7 9
12 13 14 14 15 15 16 16 17 18 17 17 17 17 16 16 16 16 15 16 15 15 14 14 14 13 12 9 8 1 1 4 1 2 2 3 3 5 6 8 9 4 3 5 7 4 4 5 4 1 2 3 1 1 4 2 3 4 10 7 7 1 2 10 6 6 3 3 2 2 4 8 0 0 4 5 7 14 12 3 12 12 11 9 7 11 7 10
11 13 13 14 15 16 16 17 17 17 18 18 18 18 18 17 17 16 16 15 16 15 15 15 14 14 13 9 1 1 2 3 0 1 3 4 4 4 6 7 9 6 4 4 3 4 5 1 5 1 1 1 5 7 3 3 4 5 4 6 6 6 7 2 2 4 3 2 2 4 4 3 2 7 3 6 12 17 20 2 7 10 10 9 3 7 9 11
10 11 13 12 14 15 16 17 18 18 18 18 18 18 18 17 17 16 16 16 15 15 15 15 14 14 15 4 1 2 2 6 2 5 6 5 5 6 7 7 8 5 4 4 2 4 3 3 4 4 2 0 4 5 5 3 2 4 8 1 7 7 12 11 9 5 5 4 8 3 4 6 6 10 1 6 12 19 23 1 5 7 4 2 6 11 16 17
9 9 10 9 10 14 16 17 17 18 18 18 18 17 17 16 16 16 15 15 15 16 15 15 14 12 11 1 1 1 2 5 8 3 2 6 7 7 9 5 5 4 4 8 8 5 4 5 7 2 2 6 3 7 1 1 1 6 9 4 6 2 8 9 7 6 5 9 7 3 5 14 6 7 3 13 16 18 20 4 9 6 5 5 7 10 12 13
10 9 9 10 9 11 14 15 17 17 18 17 17 17 16 16 15 15 15 15 15 15 14 13 13 11 6 1 3 5 6 6 5 2 3 6 5 6 7 3 3 6 2 1 4 6 6 7 5 7 7 2 2 2 2 2 8 7 13 2 3 5 6 7 6 6 5 5 3 3 13 15 9 3 11 23 22 21 12 6 8 6 7 8 10 11 12 13
10 9 11 11 11 13 15 16 16 18 18 18 17 17 17 16 16 16 16 16 15 14 14 12 11 11 2 1 1 4 6 5 1 5 6 7 6 7 2 2 6 5 3 3 2 4 8 6 9 5 2 1 3 4 1 6 6 4 4 4 7 8 7 7 6 3 5 5 5 6 10 16 1 4 13 9 14 9 5 8 5 5 9 10 8 8 10 12
10 11 12 12 12 15 17 16 17 18 18 18 18 18 18 17 16 16 16 15 14 14 12 12 9 7 0 1 3 10 4 6 1 4 7 8 8 8 7 5 5 5 5 1 6 6 2 3 2 3 1 5 3 3 2 4 2 1 1 6 9 5 8 11 5 8 1 7 9 9 13 11 4 2 15 21 13 3 5 9 7 5 8 10 9 9 8 11
10 11 13 13 14 17 17 16 17 19 19 20 20 21 21 20 18 18 16 15 14 11 11 11 8 0 0 1 7 9 1 2 2 4 5 7 5 7 5 6 6 5 6 5 4 3 4 2 4 2 4 1 2 0 3 3 1 1 2 7 11 5 10 17 6 7 9 8 6 7 2 8 6 9 21 19 15 5 6 11 14 10 10 10 8 8 8 13
11 12 12 13 14 17 15 16 17 19 20 21 21 22 21 20 19 18 16 14 10 12 10 5 5 1 0 4 10 7 2 0 3 6 2 1 3 2 3 3 5 3 4 3 1 1 4 5 2 1 3 0 1 2 1 2 1 2 1 0 12 9 10 14 5 4 7 4 8 6 6 6 15 18 17 16 9 6 5 11 13 12 9 8 8 9 11 11
11 9 10 11 13 15 14 15 17 19 20 21 22 22 21 21 20 18 16 15 13 10 6 1 3 1 1 6 6 2 2 2 5 2 3 1 2 1 2 3 5 3 0 2 1 2 3 1 4 2 1 3 5 3 1 4 3 4 3 1 4 7 12 4 4 2 1 4 8 4 10 10 15 19 16 8 5 6 10 12 12 12 12 10 8 8 11 13
8 10 11 14 15 14 13 15 16 17 19 20 21 21 22 24 22 19 17 12 6 2 3 4 1 2 1 8 4 6 1 2 2 5 5 6 4 1 1 1 3 3 2 3 3 1 3 5 3 0 3 0 1 4 6 2 2 1 4 6 2 6 9 17 9 5 11 2 4 6 9 13 15 18 16 3 2 5 9 12 13 11 12 12 9 9 11 14
7 9 13 15 15 14 14 13 16 17 19 21 20 21 22 22 20 17 13 8 6 6 3 1 1 3 1 5 1 2 1 1 5 4 3 5 6 5 1 4 2 3 2 2 2 3 2 2 1 3 2 2 3 1 3 5 6 3 6 7 9 1 7 10 12 2 8 1 1 11 11 1 9 15 15 5 6 5 8 11 12 13 13 12 10 10 11 11
8 10 12 14 15 15 14 16 17 19 20 20 21 21 19 15 13 6 8 8 4 4 2 0 1 1 1 3 0 2 6 5 1 1 2 1 5 5 5 4 1 2 4 4 2 3 2 2 0 1 2 4 2 4 1 3 9 7 1 6 4 8 4 7 9 13 1 7 4 7 9 12 13 11 10 10 3 4 6 12 13 12 12 11 9 11 13 12
9 10 12 12 14 14 15 16 18 19 21 21 21 17 13 12 3 9 7 6 3 3 1 0 2 0 9 3 5 7 0 3 1 2 3 1 4 4 3 2 1 5 4 2 2 4 1 2 2 6 1 1 2 2 6 9 9 8 4 5 6 4 8 13 4 5 6 3 7 1 11 16 14 12 12 13 12 5 8 11 14 12 11 12 11 13 16 15
10 12 12 12 13 13 15 16 18 19 20 24 18 13 4 3 2 2 4 0 2 1 1 1 3 4 4 4 6 5 1 2 1 2 1 4 1 3 4 3 5 6 1 2 3 4 2 3 4 2 6 6 9 9 12 17 11 15 11 8 4 7 8 8 11 10 6 19 12 7 15 18 13 13 14 15 15 17 14 13 13 14 15 14 14 17 17 16
9 12 13 12 10 12 15 15 17 19 21 14 8 4 1 2 2 0 3 1 3 5 1 5 7 2 5 6 3 1 1 2 2 2 2 1 6 4 3 2 3 4 5 5 1 3 2 7 8 9 12 15 12 13 18 19 13 4 1 5 10 10 11 9 11 12 3 6 12 18 20 19 16 12 14 15 10 15 18 18 16 14 16 16 16 18 19 18
10 9 12 12 9 12 13 15 16 17 19 7 3 2 1 0 1 4 4 9 8 5 4 5 13 7 10 1 0 1 1 1 1 1 0 1 3 7 2 2 2 3 3 3 6 1 2 8 8 13 16 13 15 14 10 6 3 6 8 6 13 7 17 13 14 11 3 4 7 6 18 20 19 15 13 12 9 16 20 22 21 19 16 16 19 20 20 20
11 11 10 11 9 12 13 13 15 16 12 1 5 4 1 0 0 1 2 6 5 5 6 12 1 6 7 8 2 2 3 3 0 1 1 1 1 4 2 4 3 8 1 2 2 1 5 10 10 15 11 6 4 2 3 6 8 6 9 9 9 11 11 13 14 15 12 3 16 10 18 20 16 13 10 11 17 16 16 19 21 20 17 15 18 19 19 17
10 11 12 8 11 11 12 13 15 11 4 5 4 2 0 0 1 1 1 1 7 4 3 6 5 9 12 3 0 3 3 5 7 1 5 4 2 3 3 3 4 1 3 5 10 6 9 4 14 12 8 6 6 2 2 1 3 6 6 5 13 4 3 13 4 6 1 6 6 5 20 19 12 16 18 17 17 15 15 19 20 19 20 21 22 20 18 18
10 9 9 10 11 11 12 13 12 3 3 3 2 0 0 2 3 1 1 3 4 7 6 4 3 3 6 2 2 6 4 4 2 6 4 6 7 3 3 6 3 3 8 11 14 14 14 2 5 8 8 7 11 8 5 4 13 9 12 11 9 9 15 13 7 4 5 6 4 14 17 18 11 15 8 10 14 12 13 16 16 18 19 23 17 13 15 18
11 10 8 8 9 10 11 12 3 0 2 1 0 2 2 2 3 1 1 4 1 5 1 1 2 2 3 1 1 4 3 0 3 0 2 4 6 3 3 2 2 9 6 6 7 9 11 5 2 3 5 6 7 6 6 8 13 15 8 9 17 18 13 11 10 7 3 6 4 2 10 16 4 12 10 8 1 6 10 12 17 21 22 17 12 16 16 15
11 9 9 7 7 8 9 5 1 1 0 1 0 0 2 3 2 1 1 2 6 4 2 3 2 0 1 0 2 2 5 2 0 3 1 2 1 2 1 0 2 4 4 3 9 5 5 3 7 10 9 7 5 6 7 10 14 13 6 15 18 13 10 8 11 3 6 3 3 1 4 20 4 4 6 5 6 9 7 9 18 20 15 11 15 15 13 14
12 10 9 8 7 4 2 2 0 2 2 1 1 2 2 4 1 1 2 3 5 4 3 1 1 1 2 1 0 1 1 2 1 2 2 3 4 1 2 4 1 1 3 1 3 6 2 4 3 3 1 4 4 5 11 14 8 10 2 9 6 6 7 8 5 6 8 1 4 1 3 6 24 2 7 10 11 11 12 16 17 13 12 15 16 14 12 14
13 12 10 9 9 6 1 1 2 1 1 1 3 4 3 4 3 0 1 5 4 1 1 1 0 1 1 0 4 2 1 0 1 1 1 2 1 2 2 5 7 5 2 4 12 1 5 1 3 3 3 3 8 15 1 12 7 5 1 5 5 6 5 1 4 5 3 4 10 6 3 4 10 6 4 4 6 10 14 14 12 12 15 15 16 15 14 15
13 13 12 11 9 9 1 1 1 2 1 3 4 4 4 3 1 2 2 3 2 2 1 2 2 1 2 0 1 1 0 0 1 1 2 0 2 2 1 5 3 2 2 7 12 3 2 1 3 8 6 8 9 1 7 10 8 4 4 6 4 4 3 2 3 3 2 2 14 7 5 5 16 14 3 2 1 7 10 10 12 12 13 14 13 12 13 13
14 12 12 11 6 4 1 1 4 0 5 4 5 5 4 1 1 0 1 7 1 1 1 1 2 1 1 3 1 1 2 1 1 1 2 2 2 2 0 1 2 1 5 2 7 10 6 2 6 5 8 6 2 1 3 9 7 2 0 1 4 5 3 2 4 2 2 7 11 13 11 7 12 5 8 7 8 6 6 4 7 8 9 12 12 13 14 13
13 12 12 13 5 4 4 2 4 7 5 5 4 3 1 3 2 4 10 4 2 2 1 1 2 3 3 3 2 1 0 0 0 1 1 1 1 2 1 1 2 1 1 2 8 10 3 1 1 5 2 2 1 1 3 0 2 1 2 0 5 7 6 1 3 2 3 11 5 12 15 9 7 5 4 5 3 4 5 4 7 7 10 10 11 13 10 8
11 13 13 12 5 6 7 5 3 7 7 6 3 2 4 1 2 8 7 3 1 2 1 1 1 1 1 1 2 1 3 0 0 2 5 3 4 5 5 6 4 1 4 2 7 4 3 8 4 1 3 12 4 3 3 2 1 3 1 2 3 6 6 4 2 1 5 11 5 6 8 1 18 16 1 6 7 8 9 6 7 10 11 12 11 13 12 12
11 10 14 13 6 4 3 3 7 6 5 3 3 2 2 3 8 7 3 2 3 1 2 4 1 0 0 2 3 1 1 2 1 1 4 0 3 5 3 5 5 5 8 1 2 5 8 1 2 4 1 5 7 6 2 1 3 7 6 4 4 2 4 7 5 2 6 8 2 5 1 9 14 9 7 11 18 13 4 9 11 11 13 12 9 9 11 14
13 8 7 8 9 8 4 8 6 8 6 3 5 3 4 3 9 3 5 5 5 2 4 1 2 2 1 4 3 3 1 3 4 2 2 1 1 2 3 4 4 2 2 1 3 2 7 10 4 4 2 3 8 8 12 8 9 12 4 12 10 8 4 6 3 10 9 7 3 4 4 9 0 4 3 10 4 4 4 5 4 5 7 7 7 9 11 12
14 6 6 4 7 4 7 6 8 6 7 5 3 3 5 12 4 2 3 3 3 1 0 0 1 1 4 1 2 3 4 2 1 3 1 4 5 3 5 4 5 3 0 1 4 2 9 9 7 5 1 7 9 7 2 3 2 2 3 4 2 9 7 10 11 10 13 9 2 2 8 3 7 1 7 5 6 8 9 6 3 6 5 5 6 5 7 8
7 2 4 3 3 4 7 6 6 6 8 6 5 4 13 9 4 2 3 3 0 1 2 2 3 2 4 3 2 1 3 4 1 2 2 4 3 3 3 3 7 14 8 7 4 3 1 8 0 4 5 3 3 2 3 5 2 2 6 6 12 0 6 6 5 8 5 0 14 5 7 9 6 12 10 4 3 7 4 4 3 3 3 3 3 4 6 7
4 1 2 2 2 6 9 7 7 5 4 6 4 10 11 4 5 2 3 3 2 5 2 3 4 4 1 2 2 2 3 2 4 4 4 2 4 7 3 4 4 8 13 9 4 3 7 8 4 0 8 2 1 1 2 3 2 8 2 7 1 2 3 3 7 2 4 11 10 8 16 14 4 13 3 1 1 4 5 3 4 6 4 1 3 4 4 5
5 3 3 4 5 9 9 9 9 5 5 7 11 15 2 4 2 5 2 3 1 1 2 4 6 3 4 4 5 5 2 5 2 4 3 4 4 5 5 2 5 10 13 2 3 4 2 9 6 10 2 3 2 1 5 4 3 9 8 2 1 5 7 3 2 6 8 12 6 7 14 16 11 17 11 11 11 14 13 8 4 5 2 1 4 6 6 5
3 3 4 4 8 11 9 8 6 7 2 5 9 13 3 7 2 2 5 5 1 4 4 4 5 3 3 4 3 0 4 5 3 4 3 4 5 5 6 4 1 6 4 5 1 1 2 5 4 5 6 1 1 1 11 4 1 1 1 4 1 1 6 4 6 2 2 14 10 12 12 13 8 10 13 15 9 6 7 5 5 8 4 1 4 5 5 7
2 3 5 1 2 8 10 10 7 6 5 12 10 10 1 1 3 3 3 5 3 4 5 3 4 6 3 7 4 8 3 5 4 6 5 3 6 2 1 3 4 1 3 4 4 0 2 1 7 3 4 3 6 5 10 10 6 4 3 6 2 3 2 1 2 3 7 10 10 10 12 8 7 4 12 19 8 6 6 7 7 7 4 3 4 5 6 6
1 3 2 2 5 8 10 7 6 10 9 2 6 7 2 4 0 1 4 3 1 2 3 2 4 7 5 3 6 3 1 3 4 6 4 4 6 8 4 6 3 4 3 2 1 0 1 3 9 4 6 9 12 4 8 8 7 6 8 7 9 7 8 10 14 4 6 10 12 10 16 5 5 6 19 19 8 5 6 6 8 6 5 6 8 8 6 7
3 6 2 2 7 13 12 8 5 2 2 9 11 5 5 3 1 2 0 1 4 3 1 2 4 5 2 7 7 2 2 3 6 5 4 12 4 10 3 3 5 5 6 5 6 6 6 2 2 7 10 15 17 14 5 7 4 4 4 6 7 4 3 6 13 12 9 9 8 11 12 10 4 6 17 16 13 8 5 6 10 8 6 7 9 7 7 6
5 6 1 4 7 11 8 7 6 6 7 4 3 3 0 2 3 3 4 2 3 2 2 3 5 5 5 8 3 5 6 7 6 8 4 6 10 13 10 7 6 4 1 3 2 3 6 1 1 11 5 8 11 12 11 5 4 5 5 8 6 11 13 14 12 10 10 7 9 10 13 3 8 6 14 16 17 16 10 6 9 6 7 7 7 7 8 8
3 3 2 1 6 0 6 11 10 11 7 5 3 4 1 2 3 3 4 3 5 2 4 3 2 8 6 5 5 7 5 9 7 16 8 5 7 8 12 11 7 5 5 5 4 3 2 3 6 9 4 3 4 5 9 4 5 5 10 11 14 15 15 15 12 4 11 12 14 14 19 8 4 6 11 14 15 15 15 12 4 5 7 7 7 8 7 6
3 3 4 1 4 6 10 6 10 7 8 9 7 11 8 3 5 10 6 3 3 5 2 3 6 1 4 4 6 6 5 13 6 4 6 4 5 2 6 9 8 8 7 3 2 1 5 3 2 7 8 11 11 11 9 8 8 3 1 8 11 13 16 12 12 12 18 13 18 18 16 12 9 6 11 14 18 21 21 17 5 6 7 7 5 5 7 10
1 2 3 1 4 5 6 3 3 3 4 7 11 10 9 12 5 1 6 6 6 3 4 1 1 2 3 2 4 6 8 5 9 2 3 1 2 2 2 8 5 2 6 8 4 5 2 1 7 9 12 14 13 11 6 8 6 11 7 4 7 9 10 12 12 12 15 13 16 16 16 16 12 11 13 16 17 22 24 25 21 9 6 6 5 9 12 14
3 0 2 1 1 8 8 6 9 4 7 4 7 3 13 14 7 5 9 6 5 8 3 6 6 5 4 6 9 9 9 9 7 10 9 11 3 2 6 5 5 7 6 4 4 4 2 6 10 14 17 17 18 19 19 16 18 17 18 20 16 14 9 12 12 18 14 15 19 10 15 16 15 12 16 19 20 20 19 17 19 21 21 18 15 15 17 17
1 4 1 3 2 4 8 9 9 10 7 3 6 2 9 8 7 9 0 3 1 0 4 3 10 12 12 11 6 7 4 9 5 10 7 3 4 6 7 3 3 4 5 1 2 1 2 6 5 13 16 14 16 19 19 18 16 16 18 18 20 20 20 21 21 21 15 15 19 15 15 17 16 15 17 15 12 13 15 15 14 14 15 17 19 19 17 17
1 2 2 3 0 4 4 5 6 4 10 13 8 9 11 13 15 8 4 1 1 3 8 8 5 10 11 10 8 6 5 8 8 3 1 2 2 3 3 2 2 5 5 3 4 1 2 5 8 12 13 10 12 14 14 16 16 16 17 18 20 23 24 25 26 24 24 24 23 22 21 22 16 12 12 11 10 12 11 11 15 18 16 15 16 16 16 15
3 0 4 4 2 6 4 2 4 5 7 8 7 9 15 16 17 13 4 6 6 5 2 10 5 1 2 1 5 7 6 6 0 4 0 4 5 0 1 4 5 3 4 6 5 3 6 5 6 6 8 9 11 14 13 14 15 18 17 18 19 20 21 21 21 21 21 23 22 26 23 22 5 9 7 11 10 10 16 18 15 13 13 13 12 12 12 12
2 1 1 4 5 4 0 1 4 6 4 2 11 10 6 6 10 3 5 1 7 5 3 5 4 1 0 2 4 6 3 1 2 2 0 0 2 2 3 4 4 9 10 3 2 2 2 5 7 7 9 10 8 11 12 12 13 13 13 15 17 17 18 16 17 16 16 20 21 22 18 7 10 14 8 12 15 15 12 10 13 13 13 13 13 12 12 12
1 2 1 1 5 4 2 2 1 1 8 7 6 3 5 6 2 3 8 1 7 4 5 5 3 3 4 3 6 5 4 4 2 4 5 6 8 8 8 10 10 7 4 8 3 7 4 4 5 7 11 10 13 13 13 11 13 16 17 19 19 19 18 18 18 18 13 7 8 4 4 4 8 10 13 14 15 15 12 7 10 11 12 11 11 11 11 12
Wind_Direction
14 11 8 5 4 1 359 358 356 354 353 353 351 351 351 350 350 349 348 347 345 344 341 337 339 337 336 332 333 339 356 56 45 32 171 237 193 186 181 84 152 134 133 95 91 113 60 34 147 351 48 47 275 74 254 79 117 56 180 120 270 206 164 212 197 190 219 267 285 338 213 184 293 310 269 15 299 235 269 253 290 292 263 175 264 342 131 138
9 6 4 3 359 357 355 353 354 351 349 349 348 346 346 345 346 344 345 343 344 341 340 338 337 338 336 332 333 346 20 48 268 224 229 194 190 209 195 159 143 137 117 114 152 157 132 219 209 90 106 175 332 185 47 228 134 137 128 124 237 191 239 162 203 223 174 260 235 277 308 185 247 127 300 328 284 286 283 258 286 277 282 273 27 91 134 146
5 1 360 357 355 353 351 350 348 349 347 344 345 342 342 341 341 342 340 341 341 340 339 336 336 336 337 337 328 348 342 351 0 270 260 227 191 189 180 162 151 157 155 158 193 160 164 192 167 109 23 137 348 202 52 246 143 226 130 239 242 213 241 221 214 244 203 255 306 307 305 160 251 175 311 228 275 293 265 252 282 244 252 248 186 154 162 168
1 356 353 353 351 349 349 346 345 344 344 342 339 339 338 338 338 340 339 338 339 338 335 335 333 334 335 335 332 317 76 14 295 248 265 227 189 170 156 152 158 158 94 76 155 145 92 91 106 110 95 180 292 36 171 239 132 251 128 214 231 218 220 259 206 237 255 215 263 253 337 313 272 222 149 225 331 276 257 226 209 225 232 246 189 181 178 180
355 352 349 348 348 346 344 343 342 341 340 338 338 336 336 335 335 336 337 336 336 334 333 332 334 331 332 335 330 134 11 44 257 238 256 160 157 145 140 137 147 101 85 126 90 74 90 110 112 55 93 217 338 47 248 239 196 117 211 221 213 116 225 251 238 229 228 173 209 281 316 265 330 115 222 203 224 269 271 198 207 225 229 230 179 201 180 187
353 349 345 344 344 344 342 339 340 338 336 336 334 334 333 333 334 332 333 333 332 332 330 333 332 332 331 331 65 89 48 336 246 288 139 156 120 108 110 120 124 119 97 103 118 128 117 59 101 132 243 127 194 175 261 189 141 241 261 255 235 220 242 261 239 198 170 267 244 299 250 326 265 277 218 188 214 253 263 166 201 221 225 230 171 150 190 194
344 343 343 338 341 341 340 337 335 335 334 332 333 331 331 331 329 330 327 329 327 327 330 329 330 331 326 328 113 83 170 257 337 276 141 113 109 104 97 97 102 102 120 137 122 140 185 129 150 208 120 254 271 203 242 168 231 230 256 222 263 211 235 254 262 281 283 273 263 224 338 286 280 294 194 204 234 245 267 159 231 228 240 143 156 184 192 197
327 325 327 324 330 329 333 334 331 331 331 330 329 329 327 326 327 323 322 320 324 324 327 328 328 326 342 51 19 337 43 250 253 330 163 105 85 95 97 70 100 110 143 184 166 178 136 152 185 127 200 183 226 165 231 144 162 211 265 210 268 230 244 259 260 275 265 262 261 325 290 262 220 245 355 261 254 260 263 272 256 242 226 199 205 201 206 208
312 308 308 321 315 314 323 329 330 331 329 326 326 323 323 323 319 317 315 318 320 322 321 326 324 329 323 74 112 331 262 236 216 218 142 113 105 92 131 138 131 146 176 185 225 175 141 235 202 179 243 217 195 180 234 171 287 209 234 213 268 255 270 258 287 245 228 264 183 281 265 271 263 264 261 256 263 260 283 289 261 243 239 226 220 213 204 212
316 314 313 320 317 319 323 323 326 327 326 322 320 319 318 318 317 316 317 318 318 320 317 321 326 321 351 85 41 284 262 215 224 150 124 124 107 96 128 125 149 159 156 221 124 149 192 212 183 211 137 234 148 211 113 155 236 169 226 236 254 265 295 272 220 267 198 219 166 196 265 273 322 128 278 254 236 274 300 276 282 231 242 239 227 224 220 216
310 309 316 318 315 319 319 318 322 323 321 317 315 314 315 313 312 315 319 318 318 312 314 314 323 354 272 136 204 252 212 109 167 141 135 134 124 137 199 163 174 156 179 101 201 200 238 140 184 112 119 223 132 271 166 223 163 210 240 301 282 300 266 263 241 256 158 278 184 200 246 272 305 159 246 268 266 123 299 288 281 248 250 250 239 229 224 223
292 293 304 313 310 316 315 315 319 319 319 317 315 316 315 314 312 313 315 315 309 308 309 311 300 248 53 99 215 229 268 175 126 146 144 140 156 198 185 163 167 174 165 213 246 253 185 184 136 141 222 100 276 311 254 241 14 262 10 317 294 333 326 279 267 243 161 249 155 169 224 294 265 224 244 250 268 273 275 281 282 264 248 253 248 241 233 227
292 290 301 304 308 313 313 314 318 318 318 317 317 314 313 310 309 311 312 311 307 301 300 312 91 48 83 300 234 240 330 237 123 116 102 119 99 77 127 140 153 152 175 188 260 245 173 147 145 192 234 171 185 247 139 69 321 329 47 68 309 316 309 293 110 27 152 254 141 130 266 215 259 253 256 260 264 280 284 269 269 275 265 246 246 240 243 244
300 308 299 302 310 312 311 315 318 318 317 317 315 312 309 308 307 306 305 300 301 296 300 198 115 100 112 245 268 275 308 122 103 102 196 139 165 272 78 61 98 113 233 139 190 163 120 166 136 184 107 193 259 299 351 346 16 260 264 76 244 348 271 273 79 91 285 197 171 139 250 260 264 270 263 262 232 239 253 260 263 267 272 267 243 241 245 250
289 298 301 304 309 309 309 317 318 318 316 313 310 307 307 307 305 305 303 299 291 323 136 115 28 104 112 267 262 296 197 102 202 231 179 146 156 324 203 100 62 50 131 125 157 181 145 109 93 148 256 273 22 312 299 25 346 307 14 257 337 210 275 301 309 208 249 310 193 129 253 245 253 266 276 262 233 200 237 257 262 262 262 264 265 251 249 249
284 300 300 303 308 315 316 318 322 319 316 311 306 305 306 301 302 301 299 274 236 154 147 83 149 111 92 296 250 86 69 203 258 228 245 151 160 195 183 129 113 43 69 7 62 103 35 109 170 193 278 344 260 144 18 6 316 348 202 271 268 247 264 341 286 167 227 186 278 176 244 267 286 259 272 274 228 198 233 255 262 262 264 266 264 265 260 266
295 294 299 299 311 318 318 321 321 319 316 308 309 309 302 301 302 329 55 65 119 121 143 138 123 141 201 239 166 285 240 231 220 36 86 169 155 153 113 87 119 81 54 52 28 79 345 128 319 20 34 205 140 99 12 324 282 270 111 221 202 244 284 265 306 289 216 185 226 229 246 238 253 268 283 296 220 232 238 258 261 261 265 265 270 269 267 264
279 296 298 296 311 317 318 320 320 320 317 314 317 307 308 320 62 108 62 61 89 127 264 179 129 89 280 345 270 239 319 293 23 162 72 308 116 111 101 102 41 96 96 37 356 152 304 183 42 202 358 225 125 105 158 237 221 242 220 249 280 259 231 251 300 264 355 220 198 300 250 258 260 276 285 279 291 246 251 253 259 264 264 267 264 266 267 266
283 289 291 297 308 314 318 318 319 322 321 318 315 301 307 54 45 86 79 33 95 26 42 216 131 156 217 224 283 329 207 230 107 97 205 110 35 96 63 81 100 114 114 102 268 148 0 66 34 80 232 226 225 180 193 226 228 241 229 244 224 247 242 230 242 268 251 276 281 229 253 261 258 261 267 272 273 278 264 255 262 265 265 265 262 263 264 263
272 279 287 298 303 310 314 316 319 324 324 326 343 1 13 16 3 316 342 12 231 189 182 204 210 278 327 294 244 251 102 67 119 333 83 311 114 106 42 80 32 55 119 199 190 213 124 170 171 190 217 218 222 199 215 226 233 277 177 219 249 252 269 261 266 263 242 313 252 268 269 268 267 255 260 264 267 275 275 268 262 256 261 262 262 259 259 260
266 274 287 288 291 307 310 317 322 325 322 324 317 54 71 152 330 300 313 253 247 255 246 243 208 212 235 242 286 115 208 283 75 6 226 96 94 117 233 85 111 172 238 163 153 267 109 213 213 211 219 215 217 219 233 272 321 246 262 266 263 234 268 250 265 265 278 203 270 256 277 274 271 268 259 264 259 257 265 270 270 262 254 260 261 263 263 260
257 265 272 277 297 305 311 319 322 328 325 66 50 73 163 213 133 197 109 307 321 259 239 249 34 275 277 252 166 158 67 331 298 351 334 117 66 171 283 132 153 210 71 116 343 209 219 219 222 229 235 248 274 263 203 219 242 246 237 254 272 259 262 273 258 267 259 220 278 272 267 268 270 265 257 241 248 245 248 255 262 270 268 261 262 263 266 269
257 261 265 283 295 303 313 318 323 334 7 26 34 68 185 189 106 211 88 207 263 261 253 248 224 235 262 288 2 87 261 234 268 193 195 121 70 217 142 122 202 87 171 183 210 225 272 259 240 242 241 250 270 241 246 286 229 223 238 251 245 263 264 286 203 264 305 195 290 284 287 279 278 265 252 242 244 246 244 252 258 259 264 260 255 256 267 274
249 258 268 281 293 307 313 320 319 22 21 118 109 132 169 110 110 103 73 230 274 303 219 227 189 211 246 265 247 152 178 253 165 269 228 138 155 186 121 175 163 152 204 205 217 227 230 213 233 225 221 205 237 238 233 266 266 222 219 234 266 247 237 233 267 347 305 281 250 293 286 279 218 253 247 251 234 249 252 257 261 262 259 256 261 279 265 264
238 244 254 269 290 306 315 320 7 12 129 50 330 253 144 134 107 131 77 313 354 278 215 331 164 243 219 14 6 136 220 339 220 226 243 148 152 107 228 182 133 232 209 221 260 270 273 262 133 162 214 216 225 252 214 215 260 258 218 204 235 246 260 257 279 342 351 328 305 285 335 300 197 198 209 234 275 233 243 247 255 256 255 268 280 260 264 261
235 232 240 245 263 298 318 332 290 157 68 221 222 282 109 94 84 58 95 54 291 263 345 236 147 306 113 102 5 202 109 227 247 244 117 237 247 161 66 236 152 257 188 191 230 226 242 238 189 218 202 213 200 229 230 182 241 271 260 198 230 243 244 265 276 2 286 251 321 16 186 291 143 130 218 240 235 243 257 232 244 251 261 271 263 262 260 263
236 229 227 227 251 294 355 228 165 123 17 329 193 119 131 94 175 113 348 320 317 205 158 263 100 223 123 251 131 124 124 272 274 5 36 330 171 281 166 240 339 240 174 166 15 276 177 287 259 282 177 178 181 262 234 183 226 263 230 194 215 230 232 239 228 206 256 267 275 198 171 240 295 226 204 215 235 241 242 244 248 255 264 260 262 268 264 262
237 226 215 214 233 215 225 339 6 331 228 171 135 118 107 125 94 295 82 320 291 54 102 251 209 323 94 278 62 159 186 95 62 260 191 291 89 347 155 204 195 197 197 107 248 225 161 249 174 220 186 155 204 224 96 166 177 229 300 147 202 208 221 144 175 202 234 22 290 188 95 298 258 276 191 173 225 255 249 251 258 263 261 261 267 270 270 267
241 227 212 200 199 225 229 248 142 227 187 150 125 116 105 113 124 87 108 250 239 80 307 64 296 51 350 325 44 62 278 332 154 232 315 1 1 145 210 232 179 219 246 175 251 265 291 170 208 172 147 222 228 276 165 167 205 278 117 78 70 75 76 138 154 177 308 29 272 174 171 223 277 293 167 352 204 256 250 248 251 251 257 268 277 279 278 277
245 230 212 184 161 213 244 33 225 184 125 131 123 115 99 41 323 150 15 243 41 278 158 211 121 240 61 123 256 356 199 310 134 334 27 147 325 35 11 144 148 203 256 272 238 242 230 330 154 128 208 218 169 220 172 194 200 76 106 35 359 29 22 18 74 93 41 263 264 162 193 176 285 279 185 135 205 201 239 280 275 274 277 274 268 267 266 273
248 231 208 167 185 188 122 262 222 142 136 114 114 129 110 39 113 109 235 220 21 226 42 20 196 18 149 145 226 321 294 353 285 108 71 352 8 43 345 268 50 27 12 327 273 269 249 159 177 253 160 110 120 180 33 206 234 335 293 62 15 310 10 30 339 39 196 265 249 178 179 179 223 282 289 237 271 214 180 210 261 279 278 278 274 273 276 277
277 237 199 180 185 148 170 230 165 141 138 146 132 55 72 307 35 213 229 346 295 270 134 248 343 116 184 354 126 184 180 318 256 135 166 175 149 155 198 186 163 304 314 234 269 23 288 215 237 339 232 180 179 198 299 22 52 149 121 336 296 282 18 315 26 297 195 230 246 195 159 14 239 245 209 261 250 250 225 216 232 252 259 264 270 266 274 279
326 264 202 196 166 191 248 111 128 134 122 142 79 29 80 118 244 229 277 341 268 95 270 82 173 141 175 54 282 248 221 196 232 206 111 330 145 248 262 198 190 174 248 277 297 331 276 225 70 230 30 206 134 163 251 301 205 134 158 155 113 276 258 258 267 252 302 283 261 174 197 241 266 296 211 241 251 258 239 209 230 231 242 254 272 307 311 297
321 291 217 199 196 196 143 143 147 144 124 65 93 46 74 173 234 85 187 213 224 17 68 85 21 41 108 197 248 152 268 245 142 209 148 185 88 260 284 252 170 256 157 251 264 203 316 300 268 142 254 170 175 187 196 199 167 197 146 153 184 183 172 263 193 250 248 250 348 289 127 232 4 239 241 227 301 327 267 261 273 284 280 277 280 284 287 292
317 280 215 205 220 186 143 164 160 148 109 108 81 136 191 238 245 184 228 271 287 330 202 149 78 102 294 291 286 268 203 314 120 104 189 139 235 188 200 220 228 135 165 118 245 80 205 239 251 206 314 150 177 229 204 89 43 235 156 72 64 232 154 230 223 241 267 280 324 223 217 194 240 312 298 240 277 292 276 284 287 273 268 283 276 274 283 287
317 268 182 197 180 176 152 164 168 147 136 140 125 186 221 213 229 165 225 154 345 160 292 338 128 199 243 271 309 255 284 177 266 112 274 190 217 207 220 206 174 185 166 186 192 238 201 258 231 332 65 171 211 11 227 135 229 241 98 199 221 228 151 255 284 248 255 19 250 216 289 274 301 284 270 305 266 260 317 294 309 281 257 234 273 282 269 268
331 323 193 183 196 167 167 163 157 142 140 155 160 226 219 269 189 161 251 173 220 141 94 229 258 203 212 245 218 177 223 90 239 149 265 173 305 201 233 268 176 190 202 170 285 208 239 261 295 242 275 288 207 270 296 292 125 95 208 240 12 149 129 181 237 351 229 240 248 226 257 268 324 279 311 9 24 285 287 274 259 269 275 345 267 261 277 302
319 264 247 201 191 164 158 165 152 168 165 184 209 229 112 211 236 170 157 103 36 24 139 179 267 130 261 232 262 176 276 168 228 120 237 183 256 152 138 215 208 187 214 290 151 281 114 279 257 266 185 266 349 55 329 266 161 231 231 357 212 264 273 243 95 239 235 239 264 213 249 265 255 265 275 268 274 269 272 274 309 283 268 280 317 318 312 307
263 289 279 199 162 155 152 141 139 140 130 221 218 245 192 233 90 180 195 152 130 135 207 230 213 275 178 225 217 284 195 211 203 190 217 242 208 197 192 171 281 188 229 163 243 218 351 258 319 315 317 299 36 69 271 264 298 171 10 301 246 56 248 223 195 218 201 258 251 246 213 243 221 251 261 278 239 236 240 269 257 255 262 307 297 302 306 320
233 237 231 357 95 133 139 142 140 167 191 219 220 234 115 269 251 250 252 184 232 166 240 203 219 247 230 232 186 246 261 207 185 240 191 268 230 259 134 290 163 238 192 204 166 204 200 166 254 266 310 41 299 186 235 228 238 237 193 243 279 223 219 43 280 197 228 259 244 262 246 229 226 261 267 266 249 222 210 232 240 254 263 256 265 291 309 309
249 254 270 83 135 134 121 125 165 194 217 294 266 251 246 250 287 299 243 233 244 309 186 183 176 214 204 262 258 200 273 198 200 213 204 280 214 277 200 180 192 160 77 12 148 228 346 174 244 210 251 247 258 198 201 186 180 176 183 205 216 232 276 265 260 200 228 232 248 243 253 223 233 244 262 268 257 189 244 224 243 267 279 294 297 295 317 330
203 232 250 116 154 144 136 176 224 211 218 212 223 208 239 166 235 241 251 288 203 243 7 203 234 234 233 249 252 228 176 220 217 231 215 234 216 222 273 126 180 145 144 186 205 206 181 181 158 205 211 238 249 254 208 187 179 197 165 245 218 219 198 232 258 243 259 244 264 257 277 240 202 230 262 270 285 267 241 232 249 263 288 299 297 289 292 277
212 232 22 180 183 162 149 224 208 209 224 251 8 305 129 303 203 232 196 210 214 205 249 228 207 236 235 243 217 246 197 250 174 229 203 234 232 217 222 214 149 85 318 297 316 244 99 96 246 255 242 273 280 278 267 193 237 314 272 234 238 234 218 232 237 242 254 271 268 263 246 246 160 246 268 281 281 283 277 233 252 279 285 280 273 280 275 287
311 303 338 147 201 223 178 207 218 224 230 261 244 253 293 215 236 253 211 216 169 224 199 209 322 223 254 213 221 241 156 275 196 237 247 198 261 225 235 237 194 226 183 238 206 237 259 232 215 276 263 292 268 302 284 265 136 210 244 236 228 237 246 251 262 295 270 237 252 258 259 240 258 241 255 268 276 280 277 275 208 242 258 247 253 264 274 281
331 283 235 180 203 193 217 203 235 228 225 240 231 245 247 231 224 232 239 223 215 203 145 248 217 152 239 191 234 230 207 225 272 261 251 198 241 304 331 255 230 234 215 249 243 36 250 211 221 241 250 255 254 242 252 269 244 223 242 254 245 236 239 250 252 241 252 239 233 244 258 250 252 272 286 284 286 287 286 280 255 182 248 269 267 293 319 341
203 253 290 210 202 235 261 295 284 221 244 235 239 240 239 251 249 209 178 244 202 232 223 221 341 128 231 244 252 234 249 236 224 263 244 295 282 330 19 1 31 328 345 353 35 4 243 301 227 243 249 258 261 271 279 307 300 285 269 236 267 263 258 244 255 258 253 262 247 247 256 269 259 264 267 279 283 285 290 296 299 307 315 326 348 9 14 17
308 184 228 273 254 246 249 211 230 183 242 171 256 162 236 238 248 279 172 270 208 211 228 221 236 227 245 206 242 255 246 262 240 259 249 261 230 240 328 348 336 323 322 341 328 112 159 241 236 247 246 253 259 264 268 265 270 271 275 273 269 260 248 246 232 248 252 267 261 247 253 261 263 271 274 275 273 275 285 308 340 7 19 25 30 30 26 21
139 256 64 239 235 223 225 240 235 222 236 209 246 251 259 255 228 241 184 249 123 141 185 338 235 228 237 235 247 249 231 246 244 248 256 259 308 333 342 332 69 350 52 26 2 214 230 243 248 248 255 254 262 268 271 270 264 270 268 271 268 267 265 260 255 252 252 250 265 265 266 265 261 248 253 268 322 344 5 16 31 35 28 21 22 23 17 12
113 301 276 308 79 268 292 335 328 276 240 220 244 232 256 247 252 234 205 305 181 250 203 244 213 232 230 239 225 233 227 268 246 274 280 32 349 348 321 331 119 60 38 26 347 176 261 252 247 253 267 258 268 270 271 271 274 271 269 265 265 266 266 263 264 264 262 264 266 271 267 265 275 322 4 17 7 8 2 17 29 33 26 19 18 16 13 6
297 34 310 1 313 291 293 326 324 332 260 237 247 202 233 239 251 251 238 214 247 258 188 239 200 78 136 109 189 222 213 247 121 252 89 74 333 203 260 256 291 359 16 336 316 262 218 266 5 345 309 287 279 274 265 256 263 269 268 267 266 268 271 272 278 282 280 274 275 268 268 269 347 10 358 9 17 9 19 24 24 23 19 20 18 12 9 3
232 66 274 325 310 256 34 285 247 269 271 226 241 246 260 251 255 264 265 239 242 248 178 181 103 101 103 190 231 233 237 143 145 194 72 316 218 329 37 288 9 315 312 273 204 293 327 291 311 290 296 272 259 263 267 280 275 273 276 273 268 263 268 266 264 260 260 264 269 275 278 323 349 343 350 13 11 17 5 17 21 17 11 9 12 2 2 355
67 292 136 180 264 273 321 292 314 295 242 241 254 261 257 291 342 6 281 41 44 79 97 90 24 80 282 204 237 234 140 123 194 214 201 207 216 241 221 236 252 245 284 277 237 275 243 273 283 293 279 260 276 277 290 297 299 281 265 267 273 266 256 259 257 265 281 332 313 300 62 1 347 344 0 7 9 356 359 349 25 18 15 10 1 356 349 348